Terminal Aerodrome Forecast
Issued by NWS

Home | Current Version | Previous Version | Graphics & Text | Print | Product List | Glossary Off
Versions: 1 2 3 4 5 6 7 8 9 10 11 12 13 14 15 16 17 18 19 20 21 22 23 24

000
FTUS43 KDDC 040540
TAFHYS
TAF
KHYS 040540Z 0406/0506 01015KT P6SM -SN OVC040
      TEMPO 0408/0412 3SM -SN BR OVC030
     FM041500 01011KT P6SM OVC045=

USA.gov is the U.S. government's official web portal to all federal, state and local government web resources and services.